Flag for Germany Weather past 2 weeks in Nuremberg, Bavaria, Germany

50 °F

Light rain. Mostly cloudy.

Feels Like: 50 °F
Forecast: 46 / 61 °F
Wind: 2 mph from North

Location: Nuernberg

Current Time: Oct 4, 2015 at 12:05:15 PM

Latest Report: Oct 4, 2015 at 11:20 AM

Visibility: 5 mi

Pressure: 30.07 "Hg

Humidity: 94%

Dew point: 48 °F

Location of NurembergLocation

Historic Weather in Nuremberg — Graph


Nuremberg temperature yesterday

Maximum temperature yesterday: 70 °F (at 2:50 PM)
Minimum temperature yesterday: 43 °F (at 4:50 AM)
Average temperature yesterday: 55 °F

Past Weeks' High & Low Weather Summary

High70 °F (Oct 2, 2:50 PM)100% (Sep 20, 7:20 AM)30.57 "Hg (Sep 20, 7:20 AM)
Low34 °F (Oct 2, 7:50 AM)30% (Oct 2, 2:20 PM)29.65 "Hg (Sep 22, 4:50 PM)
Average53 °F70%30.20 "Hg
* Reported Sep 19 10:20 AM — Oct 4 10:50 AM, Nuremberg, Weather by CustomWeather, © 2015

Note: Actual official high and low records may vary slightly from our data, if they occured in-between our weather recording intervals... More about our weather records


Nuremberg weather history for previous 24 hours

Time TempWeatherWind HumidityBarometerVisibility
10:50 AM
Sun, Oct 4
50 °FLight rain. Mostly cloudy.1 mph94%30.07 "Hg6 mi
10:20 AM50 °FLight rain. Mostly cloudy.2 mph94%30.07 "Hg6 mi
9:50 AM50 °FLight rain. Mostly cloudy.2 mph94%30.07 "HgN/A
9:20 AM48 °FLight rain. Mostly cloudy.1 mph94%30.07 "HgN/A
8:50 AM46 °FLight rain. Mostly cloudy.2 mph100%30.04 "HgN/A
8:20 AM46 °FLight rain. Broken clouds.1 mph93%30.04 "HgN/A
7:50 AM46 °FLight rain. Partly cloudy.2 mph93%30.04 "HgN/A
7:20 AM46 °FLight rain. Passing clouds.1 mph93%30.04 "HgN/A
6:20 AM45 °FFog.1 mph93%30.01 "HgN/A
5:50 AM45 °FFog.2 mph93%30.01 "HgN/A
5:20 AM43 °FFog.2 mph100%30.01 "HgN/A
4:50 AM43 °FFog.2 mph100%29.98 "HgN/A
4:20 AM43 °FFog.1 mph100%29.98 "HgN/A
3:50 AM45 °FFog.2 mph100%30.01 "HgN/A
3:20 AM45 °FFog.1 mph93%29.98 "HgN/A
2:50 AM45 °FFog.2 mph93%30.01 "HgN/A
2:20 AM46 °FFog.1 mph93%30.01 "HgN/A
1:50 AM46 °FClear.1 mph93%30.01 "Hg10 mi
1:20 AM48 °FFog.1 mph87%30.01 "HgN/A
12:50 AM50 °FFog.3 mph94%30.01 "HgN/A
11:20 PM
Sat, Oct 3
48 °FFog.1 mph87%29.98 "HgN/A
10:50 PM50 °FClear.2 mph88%29.98 "Hg10 mi
10:20 PM52 °FClear.1 mph77%29.98 "Hg10 mi
9:50 PM52 °FClear.1 mph82%29.98 "Hg10 mi
9:20 PM52 °FClear.2 mph77%29.98 "Hg10 mi
8:50 PM55 °FClear.1 mph72%29.98 "Hg10 mi
8:20 PM57 °FClear.1 mph67%29.98 "Hg10 mi
7:50 PM57 °FSunny.No wind67%29.98 "Hg10 mi
7:20 PM61 °FSunny.2 mph63%29.98 "Hg10 mi
6:50 PM63 °FSunny.1 mph59%29.98 "Hg10 mi
6:20 PM68 °FSunny.1 mph46%29.98 "Hg10 mi
5:50 PM68 °FSunny.1 mph46%29.98 "Hg10 mi
5:20 PM70 °FSunny.2 mph40%29.98 "Hg10 mi
4:50 PM70 °FSunny.2 mph40%29.98 "Hg10 mi
4:20 PM70 °FPassing clouds.5 mph40%29.98 "HgN/A
3:50 PM70 °FPassing clouds.3 mph40%29.98 "HgN/A
3:20 PM70 °FPassing clouds.6 mph40%29.98 "HgN/A
2:50 PM70 °FSunny.5 mph40%29.98 "Hg10 mi
2:20 PM68 °FSunny.5 mph46%30.01 "Hg10 mi
1:50 PM66 °FPassing clouds.3 mph46%30.01 "HgN/A
1:20 PM66 °FSunny.3 mph49%30.01 "Hg10 mi
12:50 PM64 °FPassing clouds.3 mph49%30.01 "HgN/A
12:20 PM63 °FSunny.3 mph52%30.04 "Hg10 mi
Weather by CustomWeather, © 2015

See weather overviewHow to use our weather pages